Location: Aurora Center
(43.5271°N, 98.5894°W)
Time: 03:43:59
(UTC-05:00)

A-11 Canister half - Pass Details

Date: 24 July 2024
Orbit: 1524 x 1684 km, 47.3° (Epoch: 18 May)

Event Time Altitude Azimuth Distance (km) Brightness Sun altitude
Rises 07:06:04 0° 255° (WSW) 4,917 11.0 7.4°
Reaches altitude 10° 07:09:15 10° 256° (WSW) 3,918 10.5 7.9°
Maximum altitude 07:19:20 80° 344° (NNW) 1,656 9.4 9.7°
Drops below altitude 10° 07:29:06 10° 72° (ENE) 3,803 15.4 11.4°
Sets 07:32:10 0° 74° (ENE) 4,767 13.8 11.9°
